Terminal Aerodrome Forecast
Issued by NWS Newport/Morehead City, NC

Home | Current Version | Previous Version | Text Only | Print | Product List | Glossary Off
Versions: 1 2 3 4 5 6 7 8 9 10 11 12 13 14 15 16 17 18 19 20 21 22

281
FTUS42 KMHX 031314 AAC
TAFEWN
TAF AMD
KEWN 031314Z 0313/0412 20008KT 4SM RA BKN060 OVC090
     FM031500 21008KT 6SM SHRA OVC100
     FM031700 22009KT P6SM BKN040
     FM032200 21009KT P6SM VCTS SCT040CB BKN200
     FM040500 VRB03KT P6SM OVC050
     FM040700 00000KT 3SM BR SCT005 BKN015=

USA.gov is the U.S. government's official web portal to all federal, state and local government web resources and services.